WS6A-13 Weather Reports


Display with metric or nautical units.
time (UTC)temp
F
wind
direction
speed
MPH
gust
MPH
rain 1hr
in
rain 24hr
in
rain mn
in
humidity
%
barometer
mb
20260906180004 80 18 1.0 3.0 0.00 0.00 0.00 60 1014.2
20260906174504 80 82 0.0 3.0 0.00 0.00 0.00 61 1014.4
20260906170005 79 58 1.0 7.0 0.00 0.00 0.00 62 1014.6
20260906164504 78 43 1.0 5.0 0.00 0.00 0.00 64 1014.8
20260906163004 78 124 0.0 5.0 0.00 0.00 0.00 66 1014.8
20260906160004 77 41 0.0 3.0 0.00 0.00 0.00 67 1015.1
20260906154504 76 61 0.0 3.0 0.00 0.00 0.00 71 1015.2
20260906151504 74 37 1.0 6.0 0.00 0.00 0.00 70 1015.0
20260906150004 73 21 1.0 3.0 0.00 0.00 0.00 70 1014.8
20260906144504 72 89 2.0 7.0 0.00 0.00 0.00 71 1014.9
20260906143005 72 44 0.0 3.0 0.00 0.00 0.00 72 1014.8
20260906141503 71 78 0.0 2.0 0.00 0.00 0.00 74 1014.6
20260906140004 70 31 0.0 3.0 0.00 0.00 0.00 76 1014.7
20260906133003 69 5 0.0 1.0 0.00 0.00 0.00 80 1014.6
20260906131504 68 13 0.0 0.0 0.00 0.00 0.00 81 1014.4
20260906130004 68 13 0.0 3.0 0.00 0.00 0.00 81 1014.3
20260906124504 68 5 0.0 3.0 0.00 0.00 0.00 81 1014.1
20260906123004 67 55 0.0 1.0 0.00 0.00 0.00 82 1014.0
20260906121504 67 55 0.0 0.0 0.00 0.00 0.00 82 1013.7
20260906120004 67 55 0.0 0.0 0.00 0.00 0.00 81 1013.4
20260906114504 67 55 0.0 0.0 0.00 0.00 0.00 82 1013.2
20260906113004 67 55 0.0 0.0 0.00 0.00 0.00 84 1013.0
20260906111503 66 55 0.0 0.0 0.00 0.00 0.00 85 1012.8
20260906110004 66 55 0.0 0.0 0.00 0.00 0.00 85 1012.6
20260906104504 66 55 0.0 0.0 0.00 0.00 0.00 86 1012.5
20260906101503 66 55 0.0 0.0 0.00 0.08 0.00 86 1012.5
20260906100004 66 55 0.0 0.0 0.00 0.09 0.00 86 1012.3
20260906094504 66 55 0.0 0.0 0.00 0.09 0.00 86 1012.2
20260906093003 67 30 0.0 0.0 0.00 0.10 0.00 87 1012.0
20260906091504 67 30 0.0 0.0 0.00 0.10 0.00 87 1012.2
20260906090004 67 30 0.0 0.0 0.00 0.10 0.00 88 1012.0
20260906083004 68 29 0.0 0.0 0.00 0.10 0.00 89 1011.9
20260906081504 68 29 0.0 1.0 0.00 0.10 0.00 89 1011.9
20260906080004 68 355 0.0 0.0 0.00 0.10 0.00 90 1011.8
20260906074503 68 355 0.0 0.0 0.00 0.10 0.00 90 1011.7
20260906073004 69 355 0.0 1.0 0.00 0.10 0.00 90 1011.7
20260906071504 69 355 0.0 1.0 0.00 0.10 0.00 91 1011.8
20260906064504 70 355 0.0 0.0 0.00 0.10 0.00 91 1011.9
20260906063004 70 355 0.0 1.0 0.00 0.10 0.00 91 1011.9
20260906061504 71 5 0.0 0.0 0.00 0.10 0.00 91 1012.1
20260906060004 71 5 0.0 0.0 0.00 0.10 0.00 91 1012.0
20260906054504 71 5 0.0 0.0 0.00 0.10 0.00 91 1011.6
20260906053004 72 5 0.0 0.0 0.00 0.10 0.00 91 1011.6
20260906050004 72 5 0.0 0.0 0.00 0.10 0.00 91 1011.4
20260906044504 73 5 0.0 0.0 0.00 0.10 0.00 91 1011.2
20260906043004 73 5 0.0 0.0 0.00 0.10 0.00 91 1011.0
20260906041504 74 5 0.0 0.0 0.00 0.10 0.00 91 1010.8
20260906040004 74 355 0.0 0.0 0.00 0.10 0.00 91 1010.9
20260906033003 74 355 0.0 0.0 0.00 0.10 0.10 91 1010.9
20260906024503 75 355 0.0 0.0 0.00 0.10 0.10 90 1011.1
20260906023004 75 355 0.0 0.0 0.00 0.10 0.10 90 1011.2
20260906021503 75 355 0.0 0.0 0.00 0.10 0.10 90 1010.9
20260906020004 76 355 0.0 0.0 0.00 0.10 0.10 89 1011.0
20260906014506 76 355 0.0 0.0 0.00 0.10 0.10 89 1010.9
20260906013004 77 355 0.0 0.0 0.00 0.10 0.10 88 1010.8
20260906011503 77 355 0.0 0.0 0.00 0.10 0.10 87 1010.6
20260906010004 77 355 0.0 0.0 0.00 0.10 0.10 86 1010.3
20260906004504 78 355 0.0 0.0 0.00 0.10 0.10 84 1010.2
20260906001504 78 355 0.0 0.0 0.00 0.10 0.10 83 1009.9
20260906000004 78 355 0.0 2.0 0.00 0.10 0.10 83 1009.8
20260905233004 80 57 0.0 0.0 0.00 0.10 0.10 84 1010.2
20260905231504 81 57 0.0 0.0 0.00 0.10 0.10 84 1009.6
20260905230004 81 57 0.0 0.0 0.00 0.10 0.10 84 1009.9
20260905224504 81 57 0.0 0.0 0.00 0.10 0.10 83 1009.5
20260905223004 82 57 0.0 0.0 0.00 0.10 0.10 82 1009.7
20260905221504 83 57 0.0 0.0 0.00 0.10 0.10 81 1009.5
20260905220004 84 57 0.0 0.0 0.00 0.10 0.10 79 1009.3
20260905214504 85 63 0.0 0.0 0.00 0.10 0.10 77 1009.1
20260905211504 87 63 0.0 1.0 0.00 0.10 0.10 74 1009.4
20260905204515 88 69 0.0 1.0 0.00 0.10 0.10 72 1009.8
20260905203004 88 62 0.0 3.0 0.00 0.10 0.10 69 1009.7
20260905201504 89 69 0.0 0.0 0.00 0.10 0.10 68 1009.8
20260905200005 88 42 0.0 1.0 0.00 0.10 0.10 66 1010.0
20260905193004 88 57 0.0 1.0 0.00 0.10 0.10 70 1010.5
20260905191504 87 51 0.0 3.0 0.00 0.10 0.10 68 1010.7
20260905190004 87 81 0.0 5.0 0.00 0.10 0.10 68 1011.1
20260905183004 86 51 0.0 2.0 0.00 0.10 0.10 71 1011.4